Location: Pompeys Pillar
(45.9913°N, 107.9528°W)
Time: 12:19:49
(UTC+00:00)

Envisat - Visible Passes

Search period start: 26 January 2022 00:00
Search period end: 05 February 2022 00:00
Orbit: 764 x 766 km, 98.2° (Epoch: 26 January)

Date Brightness Start Highest point End Pass type
(mag) Time Alt. Az. Time Alt. Az. Time Alt. Az.
26 Jan 6.0 00:37:27 10° SW 00:40:24 15° W 00:43:23 10° NW visible
26 Jan 5.3 11:02:57 10° NE 11:06:45 21° E 11:10:30 10° SE visible
26 Jan 3.0 12:41:07 10° N 12:46:05 54° WNW 12:51:01 10° SSW visible
27 Jan 3.1 12:04:09 10° NNE 12:09:15 73° ESE 12:14:19 10° S visible
27 Jan 4.4 13:44:26 10° NNW 13:47:42 17° WNW 13:50:56 10° W visible
28 Jan 4.5 11:27:36 10° NNE 11:32:14 34° E 11:36:50 10° SSE visible
28 Jan 3.6 13:06:41 10° N 13:11:12 33° WNW 13:15:42 10° SW visible
29 Jan 5.6 10:51:49 10° NE 10:55:01 17° E 10:58:11 10° SE visible
29 Jan 2.9 12:29:27 10° N 12:34:31 68° WNW 12:39:33 10° SSW visible
30 Jan 3.5 11:52:36 10° NNE 11:57:38 58° E 12:02:37 10° S visible
30 Jan 4.2 13:32:29 10° NNW 13:36:14 21° WNW 13:39:58 10° WSW visible
31 Jan 6.3 00:52:48 10° WSW 00:54:17 11° W 00:55:46 10° WNW visible
31 Jan 4.9 11:16:13 10° NE 11:20:33 27° E 11:24:51 10° SSE visible
31 Jan 3.3 12:54:56 10° N 12:59:41 41° WNW 13:04:25 10° SW visible
01 Feb 5.9 10:40:57 10° ENE 10:43:16 13° E 10:45:33 10° ESE visible
01 Feb 2.8 12:17:49 10° NNE 12:22:56 85° WNW 12:28:01 10° SSW visible
01 Feb 4.6 13:58:48 10° NNW 14:01:10 13° NW 14:03:32 10° W visible
02 Feb 3.9 11:41:06 10° NNE 11:46:00 46° E 11:50:52 10° S visible
02 Feb 3.9 13:20:37 10° N 13:24:45 26° WNW 13:28:53 10° WSW visible
03 Feb 5.2 11:04:55 10° NE 11:08:51 22° E 11:12:45 10° SE visible
03 Feb 3.1 12:43:13 10° N 12:48:09 51° WNW 12:53:02 10° SW visible
04 Feb 3.0 12:06:14 10° NNE 12:11:21 78° ESE 12:16:25 10° S visible
04 Feb 4.5 13:46:38 10° NNW 13:49:44 16° WNW 13:52:49 10° W visible
